Погода в Чемошуре-Куюке

Россия / Удмуртская Республика     56°09′41″N   52°42′41″E
темп.,
°C
ветер,
м/с
пор.,
м/с
влажн.,
%
обл.,
%
осадки,
мм/ч
давл.,
гПа
погр.,
м
24 сентября, пт
пт2401:00+11вюв51358100 0.0 1021360
04:00+9юв41362100 0.0 1021383
07:00+9юв61362100 0.1 1020524
10:00+10ююв61368100 0.3 1021710
13:00+11юв71468100 0.0 1020651
16:00+15ю81141100 0.0 10191339
19:00+9ююв71583100 0.4 1020655
22:00+7ююв51286100 1.3 1020515
25 сентября, сб
сб2501:00+7юв41095100 4.1 1019509
04:00+8юв51190100 10.2 1018563
07:00+7вюв51091100 1.3 1016393
10:00+9в61166100 1.7 1014430
13:00+9вюв3868100 0.0 1014372
16:00+9в2467100 0.0 101386
19:00+10в1165100 0.0 101314
22:00+9юв61178100 0.1 1012411
26 сентября, вс
вс2601:00+8в4994100 0.4 1012323
04:00+8в51185100 0.5 1011353
07:00+8всв4886100 0.0 1010252
10:00+10вюв51175100 0.0 1010509
13:00+8в4977100 0.6 1010370
16:00+8в4894100 2.1 1010491
19:00+8вюв4897100 1.1 1010414
22:00+9в5108499 1.4 1010413
27 сентября, пн
пн2701:00+8вюв61373100 0.1 1011515
04:00+8в61279100 0.1 1013529
07:00+6в61188100 0.0 1015503
10:00+5всв6127998 0.3 1017632
13:00+9в81049100 0.0 10181147
16:00+9всв7104674 0.0 10191205
19:00+7всв6125374 0.0 1021464
22:00+4св5126198 0.0 1023404
28 сентября, вт
вт2801:00+2св411725 0.0 1024315
04:00+1св4980100 0.0 1025233
07:00+1св4880100 0.0 1026296
10:00+4всв4565100 0.0 1026637
13:00+6св4453100 0.0 10261015
16:00+6св4551100 0.0 10261190
19:00+3св3466100 0.0 102683
22:00+2ссв3670100 0.0 1026136